Location: McFarlands Corners
(41.4117°N, 81.3382°W)
Time: 01:02:15
(UTC+00:00)

Transit 4A - Pass Details

Date: 25 February 2026
Orbit: 864 x 977 km, 66.8° (Epoch: 10 March)

Event Time Altitude Azimuth Distance (km) Brightness Sun altitude
Rises 17:20:13 0° 321° (NW) 3,631 10.6 39.5°
Reaches altitude 10° 17:22:58 10° 313° (NW) 2,696 10.1 39.6°
Maximum altitude 17:28:32 34° 251° (WSW) 1,541 9.6 39.6°
Drops below altitude 10° 17:34:10 10° 188° (S) 2,715 11.5 39.7°
Sets 17:36:57 0° 180° (S) 3,660 11.9 39.7°
